This demonstration page uses our WeatherBlox Daily Observations layout. Learn more.

Left ArrowRight Arrow

44.8408, -93.29828

Hourly Observations for May 23, 2022

Temp ( °F °C ) Dew Point ( °F °C ) Humidity (%) Winds ( mph kmh ) Pressure ( in mb ) Visibility ( mi km ) Precip ( " mm )
12:53 am 00:53 Mostly Clear 50 10 29 -1.7 44 44 S 6 9 30.38 1029 10 16 0.00 0.00
1:53 am 01:53 Mostly Clear 49 9.4 29 -1.7 46 46 Calm 30.38 1029 10 16 0.00 0.00
2:53 am 02:53 Mostly Cloudy 49 9.4 29 -1.7 46 46 Calm 30.38 1029 10 16 0.00 0.00
3:53 am 03:53 Mostly Cloudy 44 6.7 34 1.1 68 68 Calm 30.39 1029 10 16 0.00 0.00
4:53 am 04:53 Mostly Cloudy 44 6.7 34 1.1 68 68 Calm 30.39 1029 10 16 0.00 0.00
5:53 am 05:53 Mostly Cloudy 47 8.3 32 0 56 56 Calm 30.37 1029 10 16 0.00 0.00
6:53 am 06:53 Mostly Cloudy 49 9.4 34 1.1 56 56 Calm 30.37 1029 10 16 0.00 0.00
7:53 am 07:53 Mostly Cloudy 51 10.6 32 0 48 48 SSW 5 7 30.39 1029 10 16 0.00 0.00
8:53 am 08:53 Partly Cloudy 54 12.2 31 -0.6 42 42 SW 5 7 30.39 1029 10 16 0.00 0.00
9:53 am 09:53 Partly Cloudy 58 14.4 31 -0.6 36 36 W 5 7 30.38 1029 10 16 0.00 0.00
10:53 am 10:53 Partly Cloudy 60 15.6 26 -3.3 27 27 SSE 8 13 30.37 1028 10 16 0.00 0.00
11:53 am 11:53 Partly Cloudy 60 15.6 29 -1.7 31 31 VRB 3 6 30.35 1028 10 16 0.00 0.00
12:53 pm 12:53 Partly Cloudy 62 16.7 29 -1.7 29 29 E 5 7 30.32 1027 10 16 0.00 0.00
1:53 pm 13:53 Partly Cloudy 62 16.7 29 -1.7 29 29 VRB 3 6 30.29 1026 10 16 0.00 0.00
2:53 pm 14:53 Partly Cloudy 63 17.2 29 -1.7 28 28 VRB 3 6 30.27 1025 10 16 0.00 0.00
3:53 pm 15:53 Partly Cloudy 65 18.3 30 -1.1 27 27 Calm 30.25 1025 10 16 0.00 0.00
4:53 pm 16:53 Mostly Cloudy 64 17.8 30 -1.1 28 28 SE 9 15 30.24 1024 10 16 0.00 0.00
5:53 pm 17:53 Cloudy 63 17.2 30 -1.1 29 29 SE 3 6 30.24 1024 10 16 0.00 0.00
6:53 pm 18:53 Cloudy 63 17.2 32 0 31 31 SSE 9 15 30.23 1024 10 16 0.00 0.00
7:53 pm 19:53 Mostly Cloudy 62 16.7 32 0 32 32 SSE 8 13 30.23 1024 10 16 0.00 0.00
8:53 pm 20:53 Mostly Cloudy 60 15.6 33 0.6 36 36 SSE 7 11 30.23 1024 10 16 0.00 0.00
9:53 pm 21:53 Mostly Cloudy 58 14.4 34 1.1 41 41 SSE 6 9 30.23 1024 10 16 0.00 0.00
10:53 pm 22:53 Mostly Cloudy 57 13.9 34 1.1 42 42 SSE 9 15 30.24 1024 10 16 0.00 0.00
11:53 pm 23:53 Mostly Cloudy 57 13.9 32 0 39 39 S 12 19 30.24 1024 10 16 0.00 0.00

Powered by AerisWeather